�������l�o���
Date,Time,MP-1(��Sv/h),MP-2(��Sv/h),MP-3(��Sv/h),MP-4(��Sv/h),MP-5(��Sv/h),MP-6(��Sv/h),MP-7(��Sv/h),MP-8(��Sv/h),����,����(m/s),���J
2020/08/23,00:00,0.695,0.998,0.632,1.227,0.880,0.394,0.691,0.647,�k��,2.5,��
2020/08/23,00:10,0.697,1.000,0.632,1.223,0.882,0.394,0.691,0.647,�k��,2.5,��
2020/08/23,00:20,0.697,0.998,0.633,1.227,0.881,0.394,0.691,0.647,�k�k��,2.6,��
2020/08/23,00:30,0.696,0.999,0.632,1.226,0.880,0.393,0.691,0.647,�k�k��,2.3,��
2020/08/23,00:40,0.697,0.998,0.633,1.224,0.880,0.396,0.692,0.647,�k�k��,2.2,��
2020/08/23,00:50,0.696,0.999,0.632,1.226,0.878,0.394,0.691,0.648,�k��,2.0,��
2020/08/23,01:00,0.698,1.000,0.633,1.226,0.880,0.396,0.692,0.646,�k�k��,2.5,��
2020/08/23,01:10,0.696,0.998,0.633,1.223,0.881,0.395,0.691,0.649,�k��,2.5,��
2020/08/23,01:20,0.697,0.999,0.633,1.227,0.881,0.395,0.691,0.648,�k��,2.6,��
2020/08/23,01:30,0.699,0.999,0.633,1.228,0.881,0.395,0.692,0.646,�k�k��,3.0,�L
2020/08/23,01:40,0.695,0.999,0.632,1.225,0.879,0.394,0.691,0.649,�k,3.4,��
2020/08/23,01:50,0.697,1.000,0.634,1.226,0.881,0.394,0.692,0.647,�k,2.8,��
2020/08/23,02:00,0.696,0.998,0.633,1.226,0.881,0.394,0.690,0.649,�k,2.6,��
2020/08/23,02:10,0.697,0.997,0.632,1.225,0.883,0.394,0.690,0.647,�k,2.6,��
2020/08/23,02:20,0.696,1.000,0.633,1.227,0.882,0.394,0.690,0.647,�k�k��,2.3,��
2020/08/23,02:30,0.697,0.997,0.632,1.225,0.881,0.394,0.691,0.647,�k�k��,2.6,��
2020/08/23,02:40,0.697,0.999,0.632,1.224,0.880,0.394,0.691,0.647,�k�k��,2.3,��
2020/08/23,02:50,0.697,0.999,0.633,1.226,0.881,0.395,0.692,0.648,�k�k��,2.6,��
2020/08/23,03:00,0.695,0.997,0.634,1.225,0.880,0.395,0.692,0.647,�k�k��,2.3,��
2020/08/23,03:10,0.698,0.998,0.633,1.225,0.880,0.395,0.693,0.649,�k,2.9,��
2020/08/23,03:20,0.698,0.997,0.632,1.227,0.881,0.394,0.689,0.647,�k,2.5,��
2020/08/23,03:30,0.698,0.998,0.633,1.226,0.882,0.396,0.693,0.647,�k�k��,3.7,��
2020/08/23,03:40,0.699,0.998,0.633,1.225,0.882,0.396,0.691,0.648,�k,3.1,��
2020/08/23,03:50,0.696,0.998,0.634,1.226,0.883,0.395,0.691,0.647,�k�k��,3.2,��
2020/08/23,04:00,0.696,1.001,0.632,1.226,0.883,0.393,0.693,0.648,�k�k��,3.0,��
2020/08/23,04:10,0.697,0.999,0.634,1.226,0.880,0.396,0.693,0.648,�k,3.1,��
2020/08/23,04:20,0.696,1.000,0.634,1.228,0.884,0.396,0.691,0.647,�k�k��,3.2,��
2020/08/23,04:30,0.699,1.000,0.633,1.228,0.881,0.394,0.691,0.647,�k�k��,3.2,��
2020/08/23,04:40,0.698,1.002,0.631,1.225,0.881,0.394,0.690,0.649,�k�k��,2.6,��
2020/08/23,04:50,0.698,0.999,0.631,1.226,0.879,0.395,0.692,0.649,�k��,2.2,��
2020/08/23,05:00,0.696,0.999,0.633,1.228,0.879,0.395,0.691,0.649,�k�k��,2.0,��
2020/08/23,05:10,0.699,1.001,0.634,1.228,0.878,0.395,0.692,0.648,�k�k��,2.0,��
2020/08/23,05:20,0.697,1.001,0.634,1.229,0.880,0.394,0.692,0.647,�k,2.5,��
2020/08/23,05:30,0.698,1.001,0.632,1.226,0.878,0.394,0.693,0.647,�k�k��,2.6,��
2020/08/23,05:40,0.698,0.999,0.635,1.227,0.880,0.395,0.692,0.647,�k�k��,2.5,��
2020/08/23,05:50,0.699,1.001,0.631,1.227,0.880,0.395,0.693,0.648,�k,1.7,��
2020/08/23,06:00,0.700,1.000,0.633,1.230,0.881,0.395,0.691,0.646,�k,2.0,��
2020/08/23,06:10,0.699,1.000,0.632,1.228,0.880,0.396,0.692,0.648,�k,1.9,��
2020/08/23,06:20,0.699,1.001,0.632,1.228,0.880,0.397,0.692,0.648,�k�k��,2.5,��
2020/08/23,06:30,0.699,1.001,0.633,1.226,0.879,0.396,0.693,0.649,�k�k��,3.3,��
2020/08/23,06:40,0.700,0.999,0.633,1.228,0.883,0.396,0.693,0.650,�k�k��,3.3,��
2020/08/23,06:50,0.698,0.998,0.634,1.226,0.881,0.395,0.690,0.646,�k��,2.6,��
2020/08/23,07:00,0.698,1.001,0.633,1.228,0.882,0.396,0.693,0.646,�k�k��,2.3,��
2020/08/23,07:10,0.700,1.001,0.633,1.228,0.879,0.395,0.693,0.647,�k,2.3,��
2020/08/23,07:20,0.698,0.999,0.635,1.227,0.883,0.394,0.692,0.647,�k,1.5,��
2020/08/23,07:30,0.698,1.001,0.633,1.227,0.882,0.395,0.693,0.647,�k,1.7,��
2020/08/23,07:40,0.699,1.002,0.635,1.227,0.881,0.395,0.691,0.649,�k�k��,1.2,��
2020/08/23,07:50,0.698,1.001,0.634,1.230,0.881,0.396,0.692,0.647,�k�k��,1.2,��
2020/08/23,08:00,0.698,1.003,0.631,1.227,0.882,0.396,0.692,0.649,�k,0.6,��
2020/08/23,08:10,0.698,1.002,0.634,1.230,0.883,0.394,0.692,0.649,�k�k��,0.9,��
2020/08/23,08:20,0.698,1.001,0.634,1.227,0.881,0.394,0.692,0.647,�k,1.7,��
2020/08/23,08:30,0.699,1.000,0.634,1.226,0.884,0.394,0.693,0.649,�k,1.7,��
2020/08/23,08:40,0.697,1.004,0.634,1.225,0.882,0.395,0.692,0.648,�k�k��,2.0,��
2020/08/23,08:50,0.698,1.001,0.634,1.229,0.882,0.395,0.693,0.648,�k,2.0,��
2020/08/23,09:00,0.701,1.001,0.634,1.228,0.883,0.396,0.692,0.649,�k,1.7,��
2020/08/23,09:10,0.697,1.003,0.633,1.227,0.886,0.395,0.693,0.649,�k,1.7,��
2020/08/23,09:20,0.701,1.003,0.637,1.227,0.884,0.395,0.693,0.648,�k��,1.7,��
2020/08/23,09:30,0.698,1.002,0.636,1.228,0.884,0.396,0.694,0.651,�k,1.7,��
2020/08/23,09:40,0.701,1.003,0.636,1.226,0.883,0.396,0.694,0.648,�k,1.1,��
2020/08/23,09:50,0.701,1.005,0.637,1.230,0.886,0.397,0.695,0.648,�k�k��,1.1,��
2020/08/23,10:00,0.700,1.006,0.635,1.229,0.884,0.397,0.692,0.649,�k��,1.2,��
2020/08/23,10:10,0.702,1.006,0.636,1.230,0.884,0.398,0.693,0.648,�k�k��,0.6,��
2020/08/23,10:20,0.701,1.006,0.633,1.229,0.886,0.397,0.693,0.649,�k��,1.2,��
2020/08/23,10:30,0.704,1.006,0.638,1.227,0.886,0.396,0.692,0.650,�k��,1.9,��
2020/08/23,10:40,0.703,1.005,0.637,1.230,0.887,0.396,0.691,0.648,��,1.7,��
2020/08/23,10:50,0.705,1.006,0.637,1.230,0.885,0.398,0.695,0.650,��,2.8,��
2020/08/23,11:00,0.704,1.002,0.636,1.230,0.887,0.399,0.694,0.649,��,2.5,��
2020/08/23,11:10,0.703,1.001,0.636,1.229,0.887,0.397,0.692,0.649,��,3.0,��
2020/08/23,11:20,0.703,1.007,0.634,1.229,0.886,0.398,0.692,0.647,��,3.5,��
2020/08/23,11:30,0.703,1.007,0.636,1.230,0.888,0.399,0.694,0.647,��,2.3,��
2020/08/23,11:40,0.702,1.003,0.636,1.231,0.885,0.396,0.694,0.647,��,2.6,��
2020/08/23,11:50,0.702,1.008,0.633,1.230,0.888,0.397,0.693,0.647,���쓌,2.0,��
2020/08/23,12:00,0.702,1.008,0.635,1.233,0.888,0.394,0.694,0.649,��,3.0,��
2020/08/23,12:10,0.703,1.007,0.636,1.231,0.888,0.397,0.694,0.648,���쓌,3.3,��
2020/08/23,12:20,0.704,1.008,0.638,1.233,0.888,0.397,0.694,0.647,���쓌,3.5,��
2020/08/23,12:30,0.704,1.007,0.638,1.234,0.888,0.397,0.693,0.649,��,3.4,��
2020/08/23,12:40,0.703,1.008,0.636,1.231,0.888,0.397,0.695,0.647,��,3.8,��
2020/08/23,12:50,0.703,1.007,0.638,1.234,0.889,0.398,0.694,0.647,��,3.6,��
2020/08/23,13:00,0.705,1.008,0.638,1.232,0.890,0.397,0.694,0.648,���쓌,4.3,��
2020/08/23,13:10,0.705,1.008,0.638,1.233,0.891,0.398,0.693,0.649,���쓌,5.0,��
2020/08/23,13:20,0.705,1.008,0.638,1.233,0.889,0.397,0.695,0.648,���쓌,4.9,��
2020/08/23,13:30,0.703,1.008,0.638,1.234,0.889,0.398,0.695,0.648,�쓌,4.8,��
2020/08/23,13:40,0.705,1.008,0.639,1.235,0.890,0.397,0.697,0.649,�쓌,5.2,��
2020/08/23,13:50,0.704,1.007,0.638,1.235,0.891,0.398,0.694,0.649,�쓌,3.5,��
2020/08/23,14:00,0.704,1.008,0.638,1.234,0.891,0.397,0.694,0.649,�쓌,4.3,��
2020/08/23,14:10,0.703,1.010,0.638,1.236,0.891,0.397,0.696,0.649,��쓌,5.2,��
2020/08/23,14:20,0.705,1.010,0.637,1.236,0.889,0.397,0.696,0.649,��쓌,6.0,��
2020/08/23,14:30,0.705,1.010,0.637,1.237,0.892,0.397,0.695,0.649,��쓌,5.2,��
2020/08/23,14:40,0.707,1.009,0.637,1.236,0.894,0.397,0.694,0.648,��쓌,4.8,��
2020/08/23,14:50,0.705,1.009,0.638,1.234,0.894,0.397,0.695,0.649,��쓌,5.1,��
2020/08/23,15:00,0.706,1.011,0.638,1.234,0.891,0.397,0.693,0.650,�쓌,6.1,��
2020/08/23,15:10,0.707,1.012,0.637,1.231,0.893,0.397,0.695,0.649,��쓌,5.7,��
2020/08/23,15:20,0.705,1.011,0.638,1.233,0.894,0.399,0.695,0.648,��쓌,5.6,��
2020/08/23,15:30,0.707,1.012,0.639,1.232,0.895,0.398,0.695,0.649,��쓌,5.1,��
2020/08/23,15:40,0.706,1.010,0.639,1.232,0.896,0.398,0.694,0.649,��쓌,6.1,��
2020/08/23,15:50,0.708,1.010,0.638,1.232,0.895,0.400,0.693,0.648,��쓌,6.4,��
2020/08/23,16:00,0.708,1.010,0.639,1.232,0.893,0.398,0.695,0.649,��쓌,6.2,��
2020/08/23,16:10,0.706,1.012,0.639,1.233,0.894,0.398,0.694,0.647,��쓌,5.3,��
2020/08/23,16:20,0.706,1.011,0.639,1.235,0.895,0.398,0.694,0.648,��쓌,4.7,��
2020/08/23,16:30,0.706,1.012,0.639,1.233,0.894,0.397,0.695,0.647,��쓌,5.2,��
2020/08/23,16:40,0.706,1.013,0.639,1.235,0.897,0.399,0.694,0.648,��쓌,5.1,��
2020/08/23,16:50,0.704,1.014,0.640,1.236,0.894,0.399,0.694,0.647,��쓌,5.7,��
2020/08/23,17:00,0.705,1.011,0.638,1.235,0.894,0.398,0.695,0.649,��쓌,6.3,��
2020/08/23,17:10,0.706,1.016,0.638,1.235,0.894,0.398,0.694,0.647,��쓌,5.3,��
2020/08/23,17:20,0.705,1.013,0.637,1.234,0.895,0.398,0.692,0.647,��쓌,5.3,��
2020/08/23,17:30,0.705,1.014,0.637,1.236,0.893,0.399,0.695,0.649,��쓌,5.7,��
2020/08/23,17:40,0.705,1.013,0.639,1.237,0.894,0.400,0.693,0.649,��쓌,5.2,��
2020/08/23,17:50,0.706,1.012,0.638,1.235,0.891,0.400,0.693,0.650,��쓌,5.7,��
2020/08/23,18:00,0.706,1.013,0.637,1.236,0.894,0.398,0.694,0.649,��쓌,6.0,��
2020/08/23,18:10,0.705,1.012,0.638,1.235,0.895,0.398,0.694,0.648,��쓌,5.7,��
2020/08/23,18:20,0.704,1.011,0.639,1.233,0.894,0.399,0.694,0.649,��쓌,5.2,��
2020/08/23,18:30,0.702,1.012,0.638,1.235,0.896,0.399,0.695,0.650,��쓌,5.5,��
2020/08/23,18:40,0.703,1.012,0.639,1.233,0.894,0.399,0.693,0.650,��쓌,5.5,��
2020/08/23,18:50,0.705,1.012,0.639,1.234,0.895,0.401,0.694,0.649,��쓌,4.6,��
2020/08/23,19:00,0.704,1.013,0.640,1.235,0.896,0.402,0.692,0.649,��쓌,5.4,��
2020/08/23,19:10,0.705,1.013,0.637,1.235,0.893,0.400,0.692,0.650,��쓌,5.0,��
2020/08/23,19:20,0.705,1.013,0.642,1.235,0.895,0.401,0.696,0.648,��쓌,5.2,��
2020/08/23,19:30,0.705,1.013,0.641,1.237,0.896,0.400,0.695,0.649,��쓌,5.0,��
2020/08/23,19:40,0.706,1.015,0.640,1.236,0.896,0.400,0.694,0.649,��쓌,5.0,��
2020/08/23,19:50,0.704,1.014,0.641,1.236,0.893,0.400,0.695,0.648,��쓌,5.1,��
2020/08/23,20:00,0.706,1.019,0.640,1.236,0.893,0.400,0.695,0.649,��쓌,3.8,��
2020/08/23,20:10,0.703,1.016,0.640,1.235,0.894,0.400,0.695,0.648,��,3.6,��
2020/08/23,20:20,0.705,1.014,0.640,1.235,0.894,0.401,0.695,0.649,��쓌,2.6,��
2020/08/23,20:30,0.705,1.015,0.640,1.236,0.894,0.401,0.695,0.650,��쓌,2.8,��
2020/08/23,20:40,0.706,1.015,0.641,1.236,0.893,0.400,0.696,0.648,��쓌,3.7,��
2020/08/23,20:50,0.706,1.014,0.639,1.238,0.895,0.400,0.693,0.650,�쓌,3.4,��
2020/08/23,21:00,0.706,1.016,0.640,1.236,0.895,0.401,0.695,0.650,��쓌,3.3,��
2020/08/23,21:10,0.705,1.015,0.640,1.237,0.894,0.401,0.695,0.650,��,3.0,��
2020/08/23,21:20,0.707,1.013,0.641,1.235,0.894,0.400,0.694,0.649,��,3.5,��
2020/08/23,21:30,0.705,1.016,0.638,1.235,0.894,0.400,0.695,0.648,��,3.7,��
2020/08/23,21:40,0.705,1.015,0.641,1.237,0.895,0.400,0.694,0.650,��쓌,3.1,��
2020/08/23,21:50,0.705,1.013,0.640,1.238,0.895,0.401,0.695,0.649,��,2.6,��
2020/08/23,22:00,0.705,1.014,0.639,1.237,0.896,0.399,0.695,0.649,��,2.6,��
2020/08/23,22:10,0.706,1.016,0.638,1.237,0.896,0.399,0.694,0.649,��,2.9,��
2020/08/23,22:20,0.705,1.014,0.640,1.236,0.897,0.401,0.696,0.650,��,2.8,��
2020/08/23,22:30,0.707,1.014,0.640,1.238,0.896,0.401,0.695,0.649,��,2.0,��
2020/08/23,22:40,0.703,1.015,0.640,1.236,0.895,0.398,0.694,0.649,��,1.9,��
2020/08/23,22:50,0.706,1.016,0.643,1.238,0.897,0.401,0.695,0.650,��쐼,1.4,��
2020/08/23,23:00,0.708,1.015,0.639,1.237,0.894,0.400,0.696,0.650,��쐼,1.1,��
2020/08/23,23:10,0.706,1.015,0.641,1.237,0.896,0.401,0.697,0.648,�쐼,1.2,��
2020/08/23,23:20,0.708,1.015,0.640,1.238,0.894,0.400,0.695,0.649,�쐼,1.2,��
2020/08/23,23:30,0.707,1.016,0.641,1.238,0.895,0.400,0.696,0.649,-,CALM,��
2020/08/23,23:40,0.705,1.015,0.641,1.238,0.896,0.400,0.695,0.650,��,0.6,��
2020/08/23,23:50,0.708,1.016,0.642,1.237,0.895,0.398,0.695,0.649,�k��,0.8,��
